Home > Weather > Knox > Past weeks

Flag for USA Past Weather in Knox, Indiana, USA — Yesterday and Last 2 Weeks

Now
71 °F

Light rain. Clear.


Feels Like: 65 °F
Forecast: 65 / 85 °F
Wind: 3 mph from Northeast

Location: Porter County Municipal Airport

Current Time: Aug 28, 2016 at 9:14:32 PM

Latest Report: Aug 28, 2016 at 7:56 PM


Visibility: 10 mi

Pressure: 30.16 "Hg

Humidity: 96%

Dew Point: 70 °F

Location of KnoxLocation

Past Weather in Knox — Graph

°F

Knox Temperature Yesterday

Maximum temperature yesterday: 84 °F (at 3:56 PM)
Minimum temperature yesterday: 68 °F (at 1:56 AM)
Average temperature yesterday: 75 °F

High & Low Weather Summary for the Past Weeks

 TemperatureHumidityPressure
High84 °F (Aug 17, 12:56 PM)100% (Aug 15, 7:56 AM)30.25 "Hg (Aug 15, 7:56 AM)
Low53 °F (Aug 23, 5:56 AM)45% (Aug 22, 11:56 AM)29.61 "Hg (Aug 20, 2:56 PM)
Average72 °F82%30.03 "Hg
* Reported Aug 13 7:56 PM — Aug 28 7:56 PM, Knox, Weather by CustomWeather, © 2016

Note: Actual official high and low records may vary slightly from our data, if they occured in-between our weather recording intervals... More about our weather records

Advertising

Knox Weather History for the Previous 24 Hours

Scroll right to see more
 ConditionsComfort  
Time TempWeatherWind HumidityBarometerVisibility
7:56 PM
Sun, Aug 28
71 °FLight rain. Clear.3 mph96%30.16 "Hg10 mi
6:56 PM74 °FSunny.3 mph91%30.16 "Hg10 mi
5:56 PM74 °FSunny.No wind91%30.16 "Hg10 mi
4:56 PM73 °FLight rain. More clouds than sun.No wind94%30.16 "Hg10 mi
3:56 PM72 °FLight rain. Overcast.No wind93%30.17 "Hg10 mi
2:56 PM71 °FLight rain. Scattered clouds.3 mph93%30.19 "Hg10 mi
1:56 PM71 °FThunderstorms. Cloudy.5 mph90%30.21 "Hg10 mi
12:56 PM80 °FThundershowers. Partly sunny.8 mph79%30.18 "Hg10 mi
12:03 PM84 °FThundershowers. Partly sunny.5 mph70%30.20 "Hg10 mi
11:56 AM83 °FMore clouds than sun.5 mph70%30.19 "Hg10 mi
10:56 AM83 °FPassing clouds.6 mph72%30.19 "Hg10 mi
9:56 AM80 °FSunny.3 mph79%30.19 "Hg10 mi
8:56 AM76 °FSunny.No wind85%30.18 "Hg10 mi
7:56 AM74 °FSunny.No wind88%30.18 "Hg10 mi
6:56 AM72 °FSunny.5 mph93%30.17 "Hg10 mi
5:56 AM72 °FThundershowers. Partly cloudy.No wind93%30.15 "Hg10 mi
4:56 AM72 °FPassing clouds.3 mph93%30.14 "Hg10 mi
3:56 AM73 °FPassing clouds.No wind94%30.13 "Hg10 mi
2:56 AM73 °FPassing clouds.5 mph94%30.11 "Hg10 mi
1:56 AM74 °FClear.3 mph91%30.11 "Hg10 mi
12:56 AM74 °FClear.6 mph94%30.09 "Hg10 mi
11:56 PM
Sat, Aug 27
75 °FClear.3 mph90%30.10 "Hg10 mi
10:56 PM76 °FClear.No wind88%30.08 "Hg10 mi
9:56 PM76 °FClear.5 mph88%30.09 "Hg10 mi
Weather by CustomWeather, © 2016

See weather overviewHow to use our weather pages